| time (UTC) | temp F | wind direction | speed MPH | gust MPH | rain 1hr in | rain 24hr in | rain mn in | humidity % | barometer mb |
| 20260503040029 | 53 | 96 | 5.0 | 11.0 | 0.00 | 0.04 | 0.04 | 56 | 1010.9 |
| 20260503034528 | 53 | 69 | 0.0 | 7.0 | 0.00 | 0.04 | 0.04 | 59 | 1011.2 |
| 20260503033033 | 54 | 109 | 0.0 | 7.0 | 0.00 | 0.04 | 0.04 | 57 | 1010.8 |
| 20260503031527 | 55 | 146 | 0.0 | 6.0 | 0.00 | 0.04 | 0.04 | 53 | 1010.1 |
| 20260503030026 | 55 | 360 | 1.0 | 9.0 | 0.00 | 0.04 | 0.04 | 53 | 1009.6 |
| 20260503024528 | 54 | 322 | 8.0 | 16.0 | 0.00 | 0.04 | 0.04 | 54 | 1009.7 |
| 20260503023026 | 55 | 325 | 7.0 | 13.0 | 0.00 | 0.04 | 0.04 | 55 | 1009.5 |
| 20260503021538 | 55 | 329 | 6.0 | 12.0 | 0.01 | 0.04 | 0.04 | 52 | 1009.4 |
| 20260503020023 | 55 | 5 | 6.0 | 13.0 | 0.02 | 0.04 | 0.04 | 52 | 1009.4 |
| 20260503014522 | 55 | 5 | 5.0 | 14.0 | 0.03 | 0.04 | 0.04 | 53 | 1009.1 |
| 20260503013121 | 55 | 355 | 5.0 | 12.0 | 0.03 | 0.04 | 0.04 | 56 | 1009.4 |
| 20260503011517 | 55 | 355 | 5.0 | 10.0 | 0.02 | 0.03 | 0.03 | 55 | 1009.6 |
| 20260503010016 | 58 | 316 | 0.0 | 12.0 | 0.01 | 0.02 | 0.02 | 51 | 1010.0 |
| 20260503004514 | 61 | 119 | 6.0 | 15.0 | 0.01 | 0.01 | 0.01 | 37 | 1010.0 |
| 20260503003015 | 61 | 40 | 8.0 | 20.0 | 0.01 | 0.01 | 0.01 | 35 | 1008.8 |
| 20260503001627 | 60 | 28 | 3.0 | 11.0 | 0.01 | 0.01 | 0.01 | 40 | 1008.3 |
| 20260503000011 | 62 | 348 | 4.0 | 12.0 | 0.01 | 0.01 | 0.01 | 37 | 1008.3 |
| 20260502234510 | 65 | 342 | 4.0 | 12.0 | 0.00 | 0.00 | 0.00 | 23 | 1007.9 |
| 20260502233010 | 66 | 314 | 6.0 | 18.0 | 0.00 | 0.00 | 0.00 | 22 | 1007.5 |
| 20260502231513 | 68 | 330 | 8.0 | 15.0 | 0.00 | 0.00 | 0.00 | 21 | 1007.7 |
| 20260502230005 | 69 | 321 | 7.0 | 18.0 | 0.00 | 0.00 | 0.00 | 20 | 1007.8 |
| 20260502224503 | 71 | 277 | 4.0 | 8.0 | 0.00 | 0.00 | 0.00 | 16 | 1008.0 |
| 20260502223005 | 71 | 190 | 4.0 | 16.0 | 0.00 | 0.00 | 0.00 | 13 | 1007.9 |
| 20260502221600 | 71 | 184 | 3.0 | 12.0 | 0.00 | 0.00 | 0.00 | 13 | 1008.0 |
| 20260502221503 | 71 | 184 | 1.0 | 12.0 | 0.00 | 0.00 | 0.00 | 13 | 1008.0 |
| 20260502220058 | 70 | 178 | 6.0 | 17.0 | 0.00 | 0.00 | 0.00 | 12 | 1008.1 |
| 20260502220002 | 70 | 171 | 5.0 | 17.0 | 0.00 | 0.00 | 0.00 | 12 | 1008.1 |
| 20260502214559 | 71 | 108 | 4.0 | 12.0 | 0.00 | 0.00 | 0.00 | 14 | 1008.5 |
| 20260502213106 | 70 | 158 | 7.0 | 14.0 | 0.00 | 0.00 | 0.00 | 14 | 1008.7 |
| 20260502211555 | 70 | 155 | 5.0 | 8.0 | 0.00 | 0.00 | 0.00 | 15 | 1008.8 |
| 20260502210055 | 70 | 148 | 1.0 | 7.0 | 0.00 | 0.00 | 0.00 | 15 | 1008.9 |
| 20260502204555 | 70 | 182 | 4.0 | 9.0 | 0.00 | 0.00 | 0.00 | 14 | 1009.1 |
| 20260502203053 | 71 | 143 | 3.0 | 7.0 | 0.00 | 0.00 | 0.00 | 13 | 1009.1 |
| 20260502201547 | 72 | 182 | 3.0 | 13.0 | 0.00 | 0.00 | 0.00 | 13 | 1009.1 |
| 20260502200107 | 72 | 190 | 6.0 | 15.0 | 0.00 | 0.00 | 0.00 | 12 | 1009.1 |
| 20260502194604 | 73 | 198 | 8.0 | 15.0 | 0.00 | 0.00 | 0.00 | 12 | 1009.2 |
| 20260502193047 | 73 | 128 | 6.0 | 14.0 | 0.00 | 0.00 | 0.00 | 12 | 1009.3 |
| 20260502191553 | 73 | 169 | 2.0 | 16.0 | 0.00 | 0.00 | 0.00 | 12 | 1009.4 |
| 20260502190044 | 73 | 129 | 7.0 | 18.0 | 0.00 | 0.00 | 0.00 | 12 | 1009.7 |
| 20260502184540 | 73 | 167 | 5.0 | 13.0 | 0.00 | 0.00 | 0.00 | 13 | 1009.8 |
| 20260502183046 | 72 | 136 | 1.0 | 7.0 | 0.00 | 0.00 | 0.00 | 13 | 1010.1 |
| 20260502181534 | 71 | 122 | 4.0 | 11.0 | 0.00 | 0.00 | 0.00 | 13 | 1010.3 |
| 20260502163021 | 67 | 95 | 0.0 | 7.0 | 0.00 | 0.00 | 0.00 | 17 | 1010.6 |
| 20260502161511 | 65 | 190 | 0.0 | 4.0 | 0.00 | 0.00 | 0.00 | 17 | 1010.6 |
| 20260502151610 | 56 | 143 | 0.0 | 0.0 | 0.00 | 0.00 | 0.00 | 31 | 1010.7 |
| 20260502150127 | 54 | 155 | 0.0 | 0.0 | 0.00 | 0.00 | 0.00 | 35 | 1010.7 |
| 20260502123027 | 45 | 225 | 0.0 | 0.0 | 0.00 | 0.00 | 0.00 | 36 | 1010.1 |
| 20260502121526 | 46 | 225 | 0.0 | 0.0 | 0.00 | 0.00 | 0.00 | 36 | 1010.1 |
| 20260502114522 | 47 | 225 | 0.0 | 0.0 | 0.00 | 0.00 | 0.00 | 32 | 1010.1 |
| 20260502113020 | 47 | 225 | 0.0 | 0.0 | 0.00 | 0.00 | 0.00 | 31 | 1010.2 |
| 20260502111519 | 47 | 217 | 0.0 | 0.0 | 0.00 | 0.00 | 0.00 | 29 | 1010.2 |
| 20260502110016 | 48 | 217 | 0.0 | 0.0 | 0.00 | 0.00 | 0.00 | 28 | 1010.2 |
| 20260502104513 | 49 | 216 | 0.0 | 0.0 | 0.00 | 0.00 | 0.00 | 26 | 1010.3 |
| 20260502103033 | 49 | 297 | 0.0 | 0.0 | 0.00 | 0.00 | 0.00 | 25 | 1010.2 |
| 20260502101509 | 49 | 297 | 0.0 | 0.0 | 0.00 | 0.00 | 0.00 | 25 | 1010.1 |
| 20260502091502 | 51 | 297 | 0.0 | 0.0 | 0.00 | 0.00 | 0.00 | 21 | 1010.7 |
| 20260502090109 | 52 | 297 | 0.0 | 0.0 | 0.00 | 0.00 | 0.00 | 20 | 1010.9 |
| 20260502070036 | 55 | 282 | 0.0 | 0.0 | 0.00 | 0.00 | 0.00 | 12 | 1011.5 |
| 20260502064537 | 56 | 292 | 0.0 | 0.0 | 0.00 | 0.00 | 0.00 | 12 | 1011.5 |
| 20260502063037 | 57 | 244 | 0.0 | 0.0 | 0.00 | 0.00 | 0.00 | 11 | 1011.4 |
| 20260502061527 | 57 | 334 | 0.0 | 0.0 | 0.00 | 0.00 | 0.00 | 10 | 1011.5 |
| 20260502060023 | 58 | 330 | 0.0 | 0.0 | 0.00 | 0.00 | 0.00 | 10 | 1011.5 |
| 20260502054517 | 59 | 355 | 0.0 | 0.0 | 0.00 | 0.00 | 0.00 | 9 | 1011.6 |
| 20260502053015 | 59 | 247 | 0.0 | 0.0 | 0.00 | 0.00 | 0.00 | 8 | 1011.6 |
| 20260502051512 | 59 | 201 | 0.0 | 3.0 | 0.00 | 0.00 | 0.00 | 8 | 1011.6 |
| 20260502050005 | 60 | 29 | 0.0 | 0.0 | 0.00 | 0.00 | 0.00 | 7 | 1011.5 |
| 20260502044502 | 60 | 254 | 0.0 | 0.0 | 0.00 | 0.00 | 0.00 | 7 | 1011.5 |
| 20260502043109 | 61 | 284 | 0.0 | 0.0 | 0.00 | 0.00 | 0.00 | 7 | 1011.4 |
| 20260502041551 | 62 | 244 | 0.0 | 0.0 | 0.00 | 0.00 | 0.00 | 5 | 1011.3 |